LRFT Weather Reports


time (UTC)temp
F
wind
direction
speed
knots
gust
knots
rain 1hr
in
rain 24hr
in
rain mn
in
humidity
%
barometer
mb
20260901133400 88 120 7.8 0.0 0.00 0.00 0.00 25 1015.0
20260901131909 88 120 7.8 0.0 0.00 0.00 0.00 25 1015.0
20260901130359 88 120 7.8 0.0 0.00 0.00 0.00 25 1015.0
20260901124906 88 120 9.6 0.0 0.00 0.00 0.00 27 1016.0
20260901123401 88 120 9.6 0.0 0.00 0.00 0.00 27 1016.0
20260901121859 88 120 9.6 0.0 0.00 0.00 0.00 27 1016.0
20260901120359 88 120 9.6 0.0 0.00 0.00 0.00 27 1016.0
20260901114900 86 140 9.6 0.0 0.00 0.00 0.00 29 1016.0
20260901113400 86 140 9.6 0.0 0.00 0.00 0.00 29 1016.0
20260901111900 86 140 9.6 0.0 0.00 0.00 0.00 29 1016.0
20260901110359 86 140 9.6 0.0 0.00 0.00 0.00 29 1016.0
20260901104900 82 150 7.8 0.0 0.00 0.00 0.00 37 1017.0
20260901103400 82 150 7.8 0.0 0.00 0.00 0.00 37 1017.0
20260901102004 0 0.0 0.0 0.00 0.00 0.00
20260901100401 82 150 7.8 0.0 0.00 0.00 0.00 37 1017.0
20260901094900 81 230 7.8 0.0 0.00 0.00 0.00 37 1017.0
20260901093359 81 230 7.8 0.0 0.00 0.00 0.00 37 1017.0
20260901091859 81 230 7.8 0.0 0.00 0.00 0.00 37 1017.0
20260901090400 81 230 7.8 0.0 0.00 0.00 0.00 37 1017.0
20260901084900 79 150 7.8 0.0 0.00 0.00 0.00 48 1017.0
20260901083409 79 150 7.8 0.0 0.00 0.00 0.00 48 1017.0
20260901081859 79 150 7.8 0.0 0.00 0.00 0.00 48 1017.0
20260901080401 79 150 7.8 0.0 0.00 0.00 0.00 48 1017.0
20260901074906 72 140 6.1 0.0 0.00 0.00 0.00 73 1017.0
20260901073400 72 140 6.1 0.0 0.00 0.00 0.00 73 1017.0
20260901071856 72 140 6.1 0.0 0.00 0.00 0.00 73 1017.0
20260901070359 72 140 6.1 0.0 0.00 0.00 0.00 73 1017.0
20260901064859 66 120 6.1 0.0 0.00 0.00 0.00 83 1017.0
20260901063400 66 120 6.1 0.0 0.00 0.00 0.00 83 1017.0
20260901061900 66 120 6.1 0.0 0.00 0.00 0.00 83 1017.0
20260901060400 66 120 6.1 0.0 0.00 0.00 0.00 83 1017.0
20260901054900 57 90 6.1 0.0 0.00 0.00 0.00 100 1017.0
20260901053359 57 90 6.1 0.0 0.00 0.00 0.00 100 1017.0
20260901051900 57 90 6.1 0.0 0.00 0.00 0.00 100 1017.0
20260901050400 57 90 6.1 0.0 0.00 0.00 0.00 100 1017.0
20260901044920 52 90 6.1 0.0 0.00 0.00 0.00 100 1017.0
20260901043400 52 90 6.1 0.0 0.00 0.00 0.00 100 1017.0
20260901041856 52 90 6.1 0.0 0.00 0.00 0.00 100 1017.0
20260901040359 52 90 6.1 0.0 0.00 0.00 0.00 100 1017.0
20260901034856 52 2.6 0.0 0.00 0.00 0.00 100 1017.0
20260901033359 52 2.6 0.0 0.00 0.00 0.00 100 1017.0
20260901031850 52 2.6 0.0 0.00 0.00 0.00 100 1017.0
20260901030359 52 2.6 0.0 0.00 0.00 0.00 100 1017.0
20260901024857 61 2.6 0.0 0.00 0.00 0.00 100 1018.0
20260901023359 61 2.6 0.0 0.00 0.00 0.00 100 1018.0
20260901021857 61 2.6 0.0 0.00 0.00 0.00 100 1018.0
20260901020356 61 2.6 0.0 0.00 0.00 0.00 100 1018.0
20260901014847 0 0.0 0.0 0.00 0.00 0.00
20260901013400 0 0.0 0.0 0.00 0.00 0.00
20260901011901 0 0.0 0.0 0.00 0.00 0.00
20260901010401 0 0.0 0.0 0.00 0.00 0.00
20260901004900 0 0.0 0.0 0.00 0.00 0.00
20260901003359 0 0.0 0.0 0.00 0.00 0.00
20260901001853 0 0.0 0.0 0.00 0.00 0.00
20260901000359 0 0.0 0.0 0.00 0.00 0.00
20260831234859 64 100 5.2 0.0 0.00 0.00 0.00 88 1018.0
20260831233400 64 100 5.2 0.0 0.00 0.00 0.00 88 1018.0
20260831231900 64 100 5.2 0.0 0.00 0.00 0.00 88 1018.0
20260831230359 64 100 5.2 0.0 0.00 0.00 0.00 88 1018.0
20260831224859 64 100 5.2 0.0 0.00 0.00 0.00 88 1018.0
20260831223400 0 0.0 0.0 0.00 0.00 0.00
20260831221900 0 0.0 0.0 0.00 0.00 0.00
20260831220359 0 0.0 0.0 0.00 0.00 0.00
20260831214859 66 110 7.0 0.0 0.00 0.00 0.00 73 1018.0
20260831213359 66 110 7.0 0.0 0.00 0.00 0.00 73 1018.0
20260831211859 66 110 7.0 0.0 0.00 0.00 0.00 73 1018.0
20260831210359 66 110 7.0 0.0 0.00 0.00 0.00 73 1018.0
20260831204901 66 110 7.0 0.0 0.00 0.00 0.00 73 1018.0
20260831203401 66 110 7.0 0.0 0.00 0.00 0.00 64 1018.0
20260831201859 66 110 7.0 0.0 0.00 0.00 0.00 64 1018.0
20260831200359 66 110 7.0 0.0 0.00 0.00 0.00 64 1018.0
20260831194857 66 110 7.0 0.0 0.00 0.00 0.00 64 1018.0
20260831193359 0 0.0 0.0 0.00 0.00 0.00
20260831191900 0 0.0 0.0 0.00 0.00 0.00
20260831190407 0 0.0 0.0 0.00 0.00 0.00
20260831184857 70 120 7.8 0.0 0.00 0.00 0.00 43 1017.0
20260831183359 70 120 7.8 0.0 0.00 0.00 0.00 43 1017.0
20260831181901 70 120 7.8 0.0 0.00 0.00 0.00 43 1017.0
20260831180400 70 120 7.8 0.0 0.00 0.00 0.00 43 1017.0
20260831174900 77 130 7.8 0.0 0.00 0.00 0.00 34 1017.0
20260831173400 77 130 7.8 0.0 0.00 0.00 0.00 34 1017.0
20260831171857 77 130 7.8 0.0 0.00 0.00 0.00 34 1017.0
20260831170401 0 0.0 0.0 0.00 0.00 0.00
20260831164859 82 130 12.2 0.0 0.00 0.00 0.00 28 1017.0
20260831163359 82 130 12.2 0.0 0.00 0.00 0.00 28 1017.0
20260831161859 82 130 12.2 0.0 0.00 0.00 0.00 28 1017.0
20260831160400 82 130 12.2 0.0 0.00 0.00 0.00 28 1017.0
20260831154859 86 130 14.8 0.0 0.00 0.00 0.00 27 1017.0
20260831153359 86 130 14.8 0.0 0.00 0.00 0.00 27 1017.0
20260831151900 86 130 14.8 0.0 0.00 0.00 0.00 27 1017.0
20260831150400 0 0.0 0.0 0.00 0.00 0.00
20260831144900 88 120 17.4 0.0 0.00 0.00 0.00 25 1017.0
20260831143400 88 120 17.4 0.0 0.00 0.00 0.00 25 1017.0
20260831141900 88 120 17.4 0.0 0.00 0.00 0.00 25 1017.0
20260831140407 88 120 17.4 0.0 0.00 0.00 0.00 25 1017.0
20260831134900 88 140 12.2 0.0 0.00 0.00 0.00 24 1017.0